PulseSat

PulseSat

COSMOS 2522 (752)

Last updated on March 21, 2019, 3:13 a.m. UTC

1 42939U 17055A   19078.30448666  .00000045  00000-0  00000-0 0  9996
2 42939  64.5396 282.8440 0005072 252.8687 315.7379  2.13102054 11579
UTC
Height (km)
Latitude
Longitude
Inclination
Orbital Period

Next 30 passes for location: Hong Kong

Rise time Rise Azimuth (degrees) Set time Set Azimuth (degrees) Duration Max altitude (degrees)

No matching passes for this satellites

PulseSat

PulseSat is the new satellites software and hardware trackering solution by Pulsely.
Satellite Two Line Element Set source: US Air Force Space Command

Download PulseSat for iOS
© 2017 Pulsely Limited